Weather History for Omaha Millard, NE

Change the Weather History Date:

Sunday, July 6, 2014

  Actual Average (KOMA) Record (KOMA)
Temperature  
Mean Temperature 82 °F 77 °F  
Max Temperature 94 °F 87 °F 104 °F (2012)
Min Temperature 70 °F 66 °F 53 °F (1967)
Degree Days  
Heating Degree Days 0 0  
Month to date heating degree days 0  
Since 1 June heating degree days 17  
Since 1 July heating degree days 0  
Cooling Degree Days 16 12  
Month to date cooling degree days 68  
Year to date cooling degree days 380  
Since 1 June cooling degree days 298  
Growing Degree Days 32 (Base 50)    
Moisture  
Dew Point 73 °F    
Average Humidity 77    
Maximum Humidity 97    
Minimum Humidity 57    
Precipitation  
Precipitation 0.00 in 0.13 in 3.55 in (1898)
Month to date precipitation 0.74  
Year to date precipitation 16.20  
Snow  
Snow 0.00 in 0.00 in - ()
Month to date snowfall 0.0  
Since 1 July snowfall 0.0  
Snow Depth -    
Sea Level Pressure  
Sea Level Pressure 29.84 in    
Wind  
Wind Speed 4 mph (SSW)    
Max Wind Speed 13 mph    
Max Gust Speed 20 mph    
Visibility 8 miles    
Events Fog    
T = Trace of Precipitation, MM = Missing Value Source: NWS Daily Summary

Daily Weather History Graph

Daily Weather History Graph

Search for Another Location

Airport:

Trip Planner

Search our weather history database for the weather conditions in past years. The results will help you decide how hot, cold, wet, or windy it might be!

Date:

Astronomy

Jul. 06, 2014 Rise Set
Actual Time 5:58 AM CDT 8:59 PM CDT
Civil Twilight 5:24 AM CDT 9:33 PM CDT
Nautical Twilight 4:42 AM CDT 10:15 PM CDT
Astronomical Twilight 3:52 AM CDT 11:05 PM CDT
Moon 2:59 PM CDT (7/6) 1:20 AM CDT (7/6)
Length of Visible Light 16h 08m
Length of Day
15h 01m
Waxing Gibbous, 62% of the Moon is Illuminated
Jul 6
Waxing Gibbous
Jul 12
Full
Jul 18
Last Quarter
Jul 26
New
Aug 3
First Quarter

Hourly Weather History & Observations

Time (CDT) Temp. Heat Index Dew Point Humidity Pressure Visibility Wind Dir Wind Speed Gust Speed Precip Events Conditions
12:15 AM 77.0 °F - 73.6 °F 89% 29.89 in 10.0 mi ESE 4.6 mph - N/A   Clear
12:35 AM 76.5 °F - 73.4 °F 90% 29.88 in 10.0 mi ESE 4.6 mph - N/A   Clear
12:55 AM 76.1 °F - 73.4 °F 91% 29.88 in 7.0 mi SE 3.5 mph - N/A   Clear
1:15 AM 75.2 °F - 72.7 °F 92% 29.87 in 7.0 mi SE 3.5 mph - N/A   Clear
1:35 AM 74.7 °F - 72.5 °F 93% 29.87 in 7.0 mi SE 3.5 mph - N/A   Clear
1:55 AM 74.7 °F - 72.9 °F 94% 29.87 in 7.0 mi Calm Calm - N/A   Clear
2:15 AM 74.3 °F - 72.7 °F 95% 29.86 in 5.0 mi SE 3.5 mph - N/A   Clear
2:35 AM 73.9 °F - 72.5 °F 95% 29.85 in 5.0 mi SE 3.5 mph - N/A   Clear
2:55 AM 73.6 °F - 72.1 °F 95% 29.84 in 4.0 mi Calm Calm - N/A   Clear
3:15 AM 73.4 °F - 71.8 °F 95% 29.83 in 4.0 mi SE 3.5 mph - N/A   Clear
3:35 AM 72.5 °F - 71.4 °F 96% 29.82 in 4.0 mi Calm Calm - N/A   Clear
3:55 AM 72.9 °F - 71.6 °F 96% 29.81 in 3.0 mi Calm Calm - N/A   Clear
4:15 AM 72.5 °F - 71.4 °F 96% 29.81 in 1.8 mi Calm Calm - N/A   Mist
4:35 AM 72.3 °F - 71.1 °F 96% 29.81 in 0.8 mi Calm Calm - N/A   Mist
4:55 AM 71.6 °F - 70.7 °F 97% 29.82 in 0.2 mi Calm Calm - N/A Fog Fog
5:15 AM 70.9 °F - 69.8 °F 96% 29.83 in 0.2 mi Calm Calm - N/A Fog Fog
5:35 AM 70.9 °F - 69.8 °F 96% 29.83 in 1.0 mi Calm Calm - N/A   Mist
5:55 AM 70.5 °F - 69.6 °F 97% 29.83 in 1.0 mi SE 3.5 mph - N/A   Mist
6:15 AM 70.7 °F - 69.8 °F 97% 29.83 in 1.2 mi SE 3.5 mph - N/A   Mist
6:35 AM 70.2 °F - 69.1 °F 96% 29.83 in 1.8 mi SE 4.6 mph - N/A   Mist
6:55 AM 70.7 °F - 69.8 °F 97% 29.84 in 4.0 mi Calm Calm - N/A   Clear
7:15 AM 71.2 °F - 70.0 °F 96% 29.85 in 4.0 mi SE 3.5 mph - N/A   Clear
7:35 AM 73.0 °F - 70.7 °F 92% 29.86 in 7.0 mi SSE 3.5 mph - N/A   Clear
7:55 AM 74.5 °F - 70.7 °F 88% 29.86 in 10.0 mi Calm Calm - N/A   Clear
8:15 AM 75.6 °F - 70.5 °F 84% 29.86 in 10.0 mi Calm Calm - N/A   Clear
8:35 AM 76.3 °F - 70.2 °F 81% 29.87 in 10.0 mi SSW 4.6 mph - N/A   Clear
8:55 AM 77.0 °F - 70.2 °F 79% 29.86 in 10.0 mi South 5.8 mph - N/A   Clear
9:15 AM 78.3 °F - 71.2 °F 79% 29.86 in 10.0 mi WSW 5.8 mph - N/A   Clear
9:35 AM 78.8 °F - 71.2 °F 78% 29.86 in 10.0 mi Calm Calm - N/A   Clear
9:55 AM 80.2 °F 83.9 °F 71.2 °F 74% 29.86 in 10.0 mi South 3.5 mph - N/A   Clear
10:15 AM 81.1 °F 85.4 °F 71.6 °F 73% 29.85 in 10.0 mi Calm Calm - N/A   Clear
10:35 AM 82.6 °F 87.8 °F 72.5 °F 71% 29.84 in 10.0 mi SSE 3.5 mph - N/A   Clear
10:55 AM 83.1 °F 89.2 °F 73.2 °F 72% 29.84 in 10.0 mi SSE 3.5 mph - N/A   Clear
11:15 AM 84.4 °F 92.0 °F 74.5 °F 72% 29.85 in 10.0 mi Calm Calm - N/A   Clear
11:35 AM 84.7 °F 92.5 °F 74.3 °F 71% 29.84 in 10.0 mi South 3.5 mph - N/A   Clear
11:55 AM 85.5 °F 94.6 °F 75.4 °F 72% 29.84 in 10.0 mi South 5.8 mph - N/A   Clear
12:15 PM 86.2 °F 95.5 °F 75.4 °F 70% 29.85 in 10.0 mi SSE 4.6 mph - N/A   Clear
12:35 PM 86.4 °F 95.5 °F 75.2 °F 69% 29.85 in 10.0 mi South 5.8 mph - N/A   Clear
12:55 PM 87.3 °F 97.7 °F 75.9 °F 69% 29.84 in 10.0 mi SSE 5.8 mph - N/A   Clear
1:15 PM 87.8 °F 98.1 °F 75.7 °F 67% 29.84 in 10.0 mi SE 3.5 mph - N/A   Clear
1:35 PM 88.0 °F 98.5 °F 75.9 °F 67% 29.84 in 10.0 mi South 4.6 mph - N/A   Clear
1:55 PM 89.1 °F 101.4 °F 76.8 °F 67% 29.83 in 10.0 mi SSE 9.2 mph - N/A   Clear
2:15 PM 89.8 °F 101.5 °F 75.9 °F 64% 29.82 in 10.0 mi SW 6.9 mph - N/A   Clear
2:35 PM 90.1 °F 103.0 °F 77.0 °F 65% 29.82 in 10.0 mi SSW 6.9 mph - N/A   Clear
2:55 PM 90.5 °F 102.7 °F 76.5 °F 63% 29.81 in 10.0 mi SW 5.8 mph - N/A   Clear
3:15 PM 91.0 °F 104.2 °F 77.0 °F 63% 29.81 in 10.0 mi SSW 4.6 mph - N/A   Clear
3:35 PM 91.8 °F 106.8 °F 77.9 °F 64% 29.81 in 10.0 mi SW 3.5 mph - N/A   Clear
4:15 PM 93.2 °F 105.7 °F 75.7 °F 57% 29.82 in 10.0 mi WNW 9.2 mph - N/A   Clear
4:35 PM 93.0 °F 106.0 °F 76.5 °F 58% 29.82 in 10.0 mi WNW 5.8 mph - N/A   Clear
4:55 PM 93.6 °F 107.4 °F 76.6 °F 58% 29.81 in 10.0 mi West 8.1 mph - N/A   Clear
5:15 PM 93.9 °F 108.4 °F 77.2 °F 58% 29.80 in 10.0 mi NW 6.9 mph - N/A   Clear
5:35 PM 93.9 °F 107.6 °F 76.8 °F 57% 29.79 in 10.0 mi WNW 4.6 mph - N/A   Clear
5:55 PM 93.6 °F 107.4 °F 76.6 °F 58% 29.79 in 10.0 mi WNW 6.9 mph - N/A   Clear
6:15 PM 93.6 °F 108.2 °F 77.4 °F 59% 29.79 in 10.0 mi NW 9.2 mph - N/A   Clear
6:35 PM 93.2 °F 107.9 °F 77.5 °F 60% 29.79 in 10.0 mi WNW 11.5 mph - N/A   Scattered Clouds
6:55 PM 92.5 °F 106.0 °F 76.6 °F 60% 29.81 in 10.0 mi NW 12.7 mph 18.4 mph N/A   Scattered Clouds
7:15 PM 90.1 °F 98.9 °F 73.4 °F 58% 29.82 in 10.0 mi NNW 10.4 mph 19.6 mph N/A   Clear
7:35 PM 89.1 °F 96.5 °F 72.7 °F 58% 29.82 in 10.0 mi NNW 11.5 mph 17.3 mph N/A   Clear
7:55 PM 88.5 °F 96.3 °F 73.2 °F 60% 29.82 in 10.0 mi NW 12.7 mph 16.1 mph N/A   Clear
8:15 PM 87.1 °F 94.1 °F 72.7 °F 62% 29.82 in 10.0 mi NNW 9.2 mph - N/A   Clear
8:35 PM 86.0 °F 92.2 °F 72.0 °F 63% 29.83 in 10.0 mi NW 9.2 mph - N/A   Clear
8:55 PM 85.1 °F 89.8 °F 70.2 °F 61% 29.83 in 10.0 mi NNW 6.9 mph - N/A   Clear
9:15 PM 84.0 °F 88.4 °F 70.0 °F 63% 29.83 in 10.0 mi NNW 4.6 mph - N/A   Clear
9:35 PM 83.1 °F 86.8 °F 69.4 °F 63% 29.83 in 10.0 mi NNW 6.9 mph - N/A   Clear
9:55 PM 82.9 °F 86.3 °F 68.9 °F 62% 29.83 in 10.0 mi NW 5.8 mph - N/A   Clear
10:15 PM 80.6 °F 83.6 °F 69.1 °F 68% 29.84 in 10.0 mi WNW 5.8 mph - N/A   Clear
10:35 PM 78.6 °F - 69.3 °F 73% 29.85 in 10.0 mi NW 3.5 mph - N/A   Clear
10:55 PM 77.5 °F - 68.9 °F 75% 29.86 in 10.0 mi WNW 3.5 mph - N/A   Clear
11:15 PM 76.5 °F - 69.4 °F 79% 29.86 in 10.0 mi Calm Calm - N/A   Clear
11:35 PM 75.0 °F - 69.8 °F 84% 29.86 in 10.0 mi Calm Calm - N/A   Clear
11:55 PM 74.8 °F - 69.6 °F 84% 29.87 in 10.0 mi Calm Calm - N/A   Clear